Location: Gadern
(49.5873°N, 8.8138°E)
Time: 06:12:10
(UTC+00:00)

Helios 1A - Pass Details

Date: 19 May 2025
Orbit: 544 x 570 km, 98.3° (Epoch: 03 June)

Event Time Altitude Azimuth Distance (km) Brightness Sun altitude
Rises 20:41:40 0° 8° (N) 2,789 7.1 -12.0°
Reaches altitude 10° 20:43:55 10° 1° (N) 1,884 6.3 -12.2°
Maximum altitude 20:47:44 40° 292° (WNW) 847 4.3 -12.6°
Drops below altitude 10° 20:51:31 10° 222° (SW) 1,859 5.4 -12.9°
Sets 20:53:43 0° 215° (SW) 2,746 6.2 -13.1°
